Simultaneous Nadir Overpasses (SNOs) Predictions

Prediction of SNOs between GOES-16 and LANDSAT-8 Satellite Orbit:

Table of predicted SNOs for the next 14.0 days since TLE Epoch: 6/22/2024
Index Date Time (GOES-16) GOES-16 Lat,Lon LANDSAT-8 Lat,Lon Distance(km) Time Diff (sec)
1 06/23/2024 15:02:19 0.03, -75.21 -0.55, -72.44 314.65 80
2 06/24/2024 03:21:03 -0.03, -75.21 -0.52, -77.64 276.16 80
3 06/26/2024 03:08:52 -0.03, -75.22 0.06, -74.68 61.23 80
4 06/28/2024 02:59:23 -0.02, -75.24 0.72, -71.72 399.38 80
5 06/28/2024 15:17:58 0.02, -75.25 0.36, -76.88 185.86 80
6 06/30/2024 15:08:27 0.02, -75.27 -0.26, -73.92 153.32 80
7 07/01/2024 03:29:51 -0.02, -75.28 -0.85, -79.11 436.56 80
8 07/02/2024 14:56:16 0.02, -75.30 -0.90, -70.96 492.90 80
9 07/03/2024 03:17:40 -0.02, -75.30 -0.21, -76.15 96.88 80
10 07/05/2024 03:02:49 -0.02, -75.33 0.45, -73.20 243.21 80
11 07/05/2024 15:24:04 0.02, -75.35 0.68, -78.35 341.74 80
